M I D A S
Marine Information and Data Acquisition System
Tripno 944 of the Zeeleeuw from 2005-05-19 07:03:27 to 2005-05-19 13:30:32
Back to CruiseResearch ActivitiesStationsMapUnderway DataData graphs

EquipmentUnitsComments
TimeDGPSUTC
LatitudeDGPSDM.mWGS84
LongitudeDGPSDM.mWGS84
SpeedMeteo Stationm/sRelative wind speed
DirectionMeteo StationdegRelative wind direction
TemperatureMeteo Stationdeg CelciusAir temperature
PressureMeteo StationPaAtmospheric pressure
HumidityMeteo Station%Relative humidity
Missing or incorrect values are displayed as -999
Metereological data collected by the RV Zeeleeuw from 2005-05-19 06:55:13 to 2005-05-19 13:41:00
Time Latitude Longitude Speed Direction Temperature Pressure Humidity
2005-05-19 06:56 51°13.561 2°56.158 7.6 15 11.9 101910 56
2005-05-19 06:57 51°13.545 2°56.231 8.7 97 11.9 101920 56
2005-05-19 06:58 51°13.541 2°56.215 4.9 123 11.9 101930 56
2005-05-19 06:59 51°13.535 2°56.214 3.7 158 12 101930 56
2005-05-19 07:00 51°13.538 2°56.217 5.5 218 12 101930 57
2005-05-19 07:01 51°13.541 2°56.202 3 247 12.1 101930 56
2005-05-19 07:02 51°13.578 2°56.052 4.7 296 12.1 101930 56
2005-05-19 07:03 51°13.626 2°55.917 3.4 299 12.2 101940 56
2005-05-19 07:04 51°13.694 2°55.78 3.8 306 12.2 101930 55
2005-05-19 07:05 51°13.796 2°55.65 3.2 240 12.3 101920 55
2005-05-19 07:06 51°13.932 2°55.557 1.5 221 12.3 101920 55
2005-05-19 07:07 51°14.08 2°55.458 2.3 215 12.4 101920 56
2005-05-19 07:08 51°14.233 2°55.327 2 278 12.5 101920 55
2005-05-19 07:09 51°14.357 2°55.091 3.5 318 12.5 101920 55
2005-05-19 07:10 51°14.514 2°54.862 4.2 310 12.5 101920 55
2005-05-19 07:11 51°14.656 2°54.598 6.8 284 12.5 101920 54
2005-05-19 07:12 51°14.784 2°54.312 6.7 302 12.5 101920 56
2005-05-19 07:13 51°14.886 2°54.005 7.6 294 12.5 101920 55
2005-05-19 07:14 51°14.985 2°53.693 8.9 301 12.5 101910 58
2005-05-19 07:15 51°15.076 2°53.374 10.2 294 12.4 101920 57
2005-05-19 07:16 51°15.147 2°53.049 9.7 305 12.4 101910 60
2005-05-19 07:17 51°15.212 2°52.72 11.4 301 12.4 101910 59
2005-05-19 07:18 51°15.269 2°52.388 11.1 305 12.4 101910 60
2005-05-19 07:19 51°15.32 2°52.054 9.6 313 12.5 101910 60
2005-05-19 07:20 51°15.36 2°51.721 11.5 303 12.3 101900 60
2005-05-19 07:21 51°15.38 2°51.383 11.1 313 12.3 101900 61
2005-05-19 07:22 51°15.373 2°51.049 12 308 12.3 101890 61
2005-05-19 07:23 51°15.374 2°50.712 11.3 313 12.3 101880 60
2005-05-19 07:24 51°15.372 2°50.373 12.9 308 12.3 101870 60
2005-05-19 07:25 51°15.367 2°50.039 11.4 309 12.3 101870 61
2005-05-19 07:26 51°15.363 2°49.709 11.4 39 12.3 101880 61
2005-05-19 07:27 51°15.358 2°49.374 12.2 313 12.3 101860 60
2005-05-19 07:28 51°15.35 2°49.044 14.5 42 12.3 101870 61
2005-05-19 07:29 51°15.344 2°48.708 12.8 231 12.4 101880 61
2005-05-19 07:30 51°15.339 2°48.379 13.1 308 12.3 101860 59
2005-05-19 07:31 51°15.333 2°48.047 12.5 316 12.3 101870 61
2005-05-19 07:32 51°15.327 2°47.712 12.8 310 12.3 101880 61
2005-05-19 07:33 51°15.322 2°47.382 12.5 316 12.3 101870 61
2005-05-19 07:34 51°15.318 2°47.05 12 228 12.3 101880 62
2005-05-19 07:35 51°15.313 2°46.719 12.6 319 12.3 101870 61
2005-05-19 07:36 51°15.31 2°46.388 11.7 317 12.3 101870 62
2005-05-19 07:37 51°15.308 2°46.056 12.9 314 12.3 101880 62
2005-05-19 07:38 51°15.305 2°45.722 12.1 228 12.3 101860 61
2005-05-19 07:39 51°15.244 2°45.426 13.2 331 12.3 101870 62
2005-05-19 07:40 51°15.224 2°45.105 11.5 319 12.3 101870 62
2005-05-19 07:41 51°15.229 2°44.778 12 317 12.3 101870 63
2005-05-19 07:42 51°15.241 2°44.443 10.9 228 12.4 101870 61
2005-05-19 07:43 51°15.266 2°44.112 11.2 316 12.4 101870 62
2005-05-19 07:44 51°15.297 2°43.782 11.4 42 12.5 101870 63
2005-05-19 07:45 51°15.33 2°43.451 10.6 228 12.5 101880 62
2005-05-19 07:46 51°15.355 2°43.123 11.5 41 12.5 101880 63
2005-05-19 07:47 51°15.38 2°42.788 10.9 228 12.6 101870 61
2005-05-19 07:48 51°15.405 2°42.459 12.5 315 12.6 101870 62
2005-05-19 07:49 51°15.442 2°42.129 12.8 311 12.6 101880 62
2005-05-19 07:50 51°15.527 2°41.824 8.8 294 12.6 101890 62
2005-05-19 07:51 51°15.658 2°41.546 7.9 306 12.7 101900 63
2005-05-19 07:52 51°15.787 2°41.27 9.1 297 12.7 101900 62
2005-05-19 07:53 51°15.919 2°40.991 7.4 296 12.7 101890 63
2005-05-19 07:54 51°16.065 2°40.721 8.4 291 12.7 101900 63
2005-05-19 07:55 51°16.212 2°40.458 9.4 294 12.8 101900 64
2005-05-19 07:56 51°16.3 2°40.268 10.3 300 12.8 101900 63
2005-05-19 07:57 51°16.3 2°40.187 9.7 232 12.8 101890 63
2005-05-19 07:58 51°16.31 2°40.186 8.4 320 12.8 101900 63
2005-05-19 07:59 51°16.328 2°40.2 8 312 12.8 101900 64
2005-05-19 08:00 51°16.349 2°40.219 8.2 293 12.8 101900 65
2005-05-19 08:01 51°16.371 2°40.229 8.5 278 12.8 101900 63
2005-05-19 08:02 51°16.393 2°40.211 9.2 283 12.8 101900 65
2005-05-19 08:03 51°16.419 2°40.179 7.4 264 12.8 101900 64
2005-05-19 08:04 51°16.454 2°40.147 4.8 254 12.8 101900 64
2005-05-19 08:05 51°16.505 2°40.135 6 213 12.7 101900 64
2005-05-19 08:06 51°16.563 2°40.159 6 161 12.7 101900 65
2005-05-19 08:07 51°16.613 2°40.22 6.9 130 12.7 101900 65
2005-05-19 08:08 51°16.643 2°40.296 7 100 12.7 101900 65
2005-05-19 08:09 51°16.66 2°40.362 7.2 90 12.6 101900 65
2005-05-19 08:10 51°16.641 2°40.434 10.7 13 12.6 101890 66
2005-05-19 08:11 51°16.575 2°40.417 11.1 350 12.6 101880 66
2005-05-19 08:12 51°16.504 2°40.367 11 348 12.7 101870 65
2005-05-19 08:13 51°16.429 2°40.32 11.7 349 12.7 101870 64
2005-05-19 08:14 51°16.336 2°40.259 11.7 351 12.8 101870 65
2005-05-19 08:15 51°16.286 2°40.237 7.6 358 12.8 101860 64
2005-05-19 08:16 51°16.281 2°40.255 7.6 14 12.9 101870 64
2005-05-19 08:17 51°16.283 2°40.286 6.4 36 12.8 101870 66
2005-05-19 08:18 51°16.293 2°40.323 7.8 55 12.7 101870 66
2005-05-19 08:19 51°16.307 2°40.362 5.3 72 12.6 101880 67
2005-05-19 08:20 51°16.325 2°40.402 7.2 87 12.5 101880 67
2005-05-19 08:21 51°16.344 2°40.44 7.8 91 12.5 101880 68
2005-05-19 08:22 51°16.364 2°40.477 6.6 97 12.6 101870 67
2005-05-19 08:23 51°16.383 2°40.514 6.8 98 12.6 101880 68
2005-05-19 08:24 51°16.403 2°40.551 6.5 93 12.6 101880 68
2005-05-19 08:25 51°16.422 2°40.587 7.2 90 12.7 101880 68
2005-05-19 08:26 51°16.443 2°40.623 7.7 87 12.7 101880 68
2005-05-19 08:27 51°16.463 2°40.659 6.7 99 12.7 101870 67
2005-05-19 08:28 51°16.484 2°40.694 6.3 101 12.7 101870 67
2005-05-19 08:29 51°16.505 2°40.73 7.5 91 12.8 101870 68
2005-05-19 08:30 51°16.525 2°40.767 5.8 102 12.8 101870 67
2005-05-19 08:31 51°16.546 2°40.805 6.6 93 12.8 101870 67
2005-05-19 08:32 51°16.567 2°40.841 6.8 95 12.8 101870 67
2005-05-19 08:33 51°16.588 2°40.876 8.2 98 12.8 101880 67
2005-05-19 08:34 51°16.609 2°40.911 7.5 99 12.8 101880 67
2005-05-19 08:35 51°16.631 2°40.947 8.7 100 12.9 101880 66
2005-05-19 08:36 51°16.653 2°40.982 7.8 102 12.9 101880 67
2005-05-19 08:37 51°16.673 2°41.015 7.6 96 13 101880 66
2005-05-19 08:38 51°16.695 2°41.052 8 96 13 101880 66
2005-05-19 08:39 51°16.717 2°41.092 8.1 84 13 101880 66
2005-05-19 08:40 51°16.697 2°41.176 8.7 6 12.9 101860 66
2005-05-19 08:41 51°16.651 2°41.12 9.4 317 13 101850 67
2005-05-19 08:42 51°16.554 2°40.939 12.7 341 13 101840 67
2005-05-19 08:43 51°16.415 2°40.708 13.4 343 13.1 101840 67
2005-05-19 08:44 51°16.278 2°40.464 13.1 339 13.1 101840 67
2005-05-19 08:45 51°16.157 2°40.205 12.4 336 13.1 101840 67
2005-05-19 08:46 51°16.032 2°39.945 13 339 13.1 101840 67
2005-05-19 08:47 51°15.908 2°39.683 13.4 337 13.2 101840 67
2005-05-19 08:48 51°15.783 2°39.423 14.2 337 13.2 101840 66
2005-05-19 08:49 51°15.657 2°39.163 14.6 339 13.2 101830 66
2005-05-19 08:50 51°15.533 2°38.905 13.3 338 13.2 101840 66
2005-05-19 08:51 51°15.405 2°38.646 13.3 338 13.2 101840 67
2005-05-19 08:52 51°15.278 2°38.39 11.8 339 13.2 101840 67
2005-05-19 08:53 51°15.153 2°38.141 12.2 338 13.3 101840 67
2005-05-19 08:54 51°15.043 2°37.879 12.8 329 13.2 101850 67
2005-05-19 08:55 51°14.938 2°37.609 12.3 334 13.2 101840 67
2005-05-19 08:56 51°14.834 2°37.342 13.2 339 13.3 101850 69
2005-05-19 08:57 51°14.754 2°37.165 11 338 13.3 101850 68
2005-05-19 08:58 51°14.713 2°37.118 8.4 329 13.3 101850 68
2005-05-19 08:59 51°14.716 2°37.138 7.1 315 13.3 101860 68
2005-05-19 09:00 51°14.726 2°37.159 6.8 301 13.3 101860 68
2005-05-19 09:01 51°14.738 2°37.182 8.3 298 13.3 101860 69
2005-05-19 09:02 51°14.752 2°37.206 7.3 299 13.4 101860 68
2005-05-19 09:03 51°14.765 2°37.232 7.8 304 13.4 101860 68
2005-05-19 09:04 51°14.774 2°37.247 8.6 335 13.4 101860 68
2005-05-19 09:05 51°14.724 2°37.298 10.1 45 13.4 101860 67
2005-05-19 09:06 51°14.604 2°37.533 12.5 40 13.3 101840 68
2005-05-19 09:07 51°14.472 2°37.847 13.3 38 13.3 101830 68
2005-05-19 09:08 51°14.344 2°38.159 12.6 34 13.3 101830 69
2005-05-19 09:09 51°14.213 2°38.469 12.1 44 13.3 101830 69
2005-05-19 09:10 51°14.067 2°38.748 13.5 26 13.3 101840 68
2005-05-19 09:11 51°13.869 2°38.857 15.2 10 13.4 101840 68
2005-05-19 09:12 51°13.667 2°38.778 14 355 13.5 101830 67
2005-05-19 09:13 51°13.487 2°38.621 12.6 355 13.6 101830 67
2005-05-19 09:14 51°13.311 2°38.447 13.8 350 13.8 101830 67
2005-05-19 09:15 51°13.148 2°38.253 14.8 349 13.7 101810 66
2005-05-19 09:16 51°12.976 2°38.068 15.8 352 13.8 101820 66
2005-05-19 09:17 51°12.793 2°37.914 14.7 358 13.8 101830 65
2005-05-19 09:18 51°12.611 2°37.763 15.3 355 13.9 101830 65
2005-05-19 09:19 51°12.428 2°37.607 14.8 353 13.9 101830 65
2005-05-19 09:20 51°12.247 2°37.448 16.6 353 13.9 101830 65
2005-05-19 09:21 51°12.066 2°37.293 15.2 353 13.9 101830 65
2005-05-19 09:22 51°11.885 2°37.135 16.4 351 13.9 101820 63
2005-05-19 09:23 51°11.704 2°36.975 16.3 352 14 101820 63
2005-05-19 09:24 51°11.522 2°36.82 15.4 353 14.1 101820 64
2005-05-19 09:25 51°11.342 2°36.66 16.5 353 14.1 101830 64
2005-05-19 09:26 51°11.161 2°36.503 16 355 14.1 101820 64
2005-05-19 09:27 51°10.982 2°36.348 16.2 353 14.1 101820 63
2005-05-19 09:28 51°10.795 2°36.231 16.2 356 14.2 101830 64
2005-05-19 09:29 51°10.612 2°36.119 14.9 358 14.2 101830 63
2005-05-19 09:30 51°10.427 2°36.008 15.7 5 14.2 101840 65
2005-05-19 09:31 51°10.232 2°35.952 15.8 1 14.1 101830 64
2005-05-19 09:32 51°10.03 2°35.97 17.4 18 14.2 101830 62
2005-05-19 09:33 51°9.834 2°36.093 17.5 19 14.3 101830 64
2005-05-19 09:34 51°9.632 2°36.207 18 19 14.3 101820 61
2005-05-19 09:35 51°9.473 2°36.275 13.1 10 14.4 101830 60
2005-05-19 09:36 51°9.403 2°36.254 12.4 348 14.5 101830 61
2005-05-19 09:37 51°9.35 2°36.215 12.5 346 14.5 101820 60
2005-05-19 09:38 51°9.323 2°36.192 11.1 231 14.6 101830 61
2005-05-19 09:39 51°9.338 2°36.204 13.7 276 14.6 101840 61
2005-05-19 09:40 51°9.36 2°36.22 11 284 14.6 101860 60
2005-05-19 09:41 51°9.38 2°36.239 10.2 288 14.7 101850 60
2005-05-19 09:42 51°9.399 2°36.261 9 287 14.7 101860 61
2005-05-19 09:43 51°9.418 2°36.287 8.9 284 14.7 101850 60
2005-05-19 09:44 51°9.438 2°36.314 10.7 292 14.8 101850 61
2005-05-19 09:45 51°9.459 2°36.341 13 281 14.8 101850 61
2005-05-19 09:46 51°9.48 2°36.369 12 277 14.8 101850 60
2005-05-19 09:47 51°9.501 2°36.398 10.1 275 14.8 101860 60
2005-05-19 09:48 51°9.522 2°36.427 10 273 14.8 101860 63
2005-05-19 09:49 51°9.543 2°36.448 10.9 273 14.8 101860 61
2005-05-19 09:50 51°9.566 2°36.44 11.1 277 14.8 101830 61
2005-05-19 09:51 51°9.6 2°36.424 6.8 255 14.8 101840 62
2005-05-19 09:52 51°9.648 2°36.426 8.2 210 14.8 101840 58
2005-05-19 09:53 51°9.7 2°36.471 10.1 156 14.8 101850 60
2005-05-19 09:54 51°9.736 2°36.551 9.9 118 14.9 101840 59
2005-05-19 09:55 51°9.748 2°36.631 10.6 98 14.8 101840 59
2005-05-19 09:56 51°9.734 2°36.722 11.1 43 14.7 101830 60
2005-05-19 09:57 51°9.627 2°36.825 15 20 14.6 101800 62
2005-05-19 09:58 51°9.467 2°36.9 17.5 19 14.7 101780 60
2005-05-19 09:59 51°9.287 2°36.968 16 24 14.8 101790 60
2005-05-19 10:00 51°9.191 2°37.03 13.8 51 14.8 101800 59
2005-05-19 10:01 51°9.16 2°37.129 11.1 95 14.8 101810 58
2005-05-19 10:02 51°9.169 2°37.235 10.7 108 14.7 101840 59
2005-05-19 10:03 51°9.185 2°37.337 10 102 14.7 101840 58
2005-05-19 10:04 51°9.196 2°37.433 10.2 112 14.8 101840 57
2005-05-19 10:05 51°9.21 2°37.529 9.9 122 14.8 101840 57
2005-05-19 10:06 51°9.227 2°37.62 11.4 45 14.8 101850 57
2005-05-19 10:07 51°9.245 2°37.7 8.7 130 14.9 101840 58
2005-05-19 10:08 51°9.263 2°37.773 8.8 134 14.9 101840 59
2005-05-19 10:09 51°9.28 2°37.841 8.6 43 14.8 101840 59
2005-05-19 10:10 51°9.298 2°37.904 8.1 44 14.8 101840 57
2005-05-19 10:11 51°9.317 2°37.966 10 146 14.8 101840 59
2005-05-19 10:12 51°9.337 2°38.028 9 134 14.8 101830 58
2005-05-19 10:13 51°9.358 2°38.088 9.5 134 14.8 101830 58
2005-05-19 10:14 51°9.377 2°38.149 9.9 132 14.9 101830 59
2005-05-19 10:15 51°9.393 2°38.21 8.8 126 14.8 101820 58
2005-05-19 10:16 51°9.41 2°38.273 8.6 132 14.8 101820 57
2005-05-19 10:17 51°9.427 2°38.335 8.8 135 14.8 101830 60
2005-05-19 10:18 51°9.445 2°38.4 8.3 129 14.8 101830 57
2005-05-19 10:19 51°9.462 2°38.464 9.3 133 14.8 101820 59
2005-05-19 10:20 51°9.478 2°38.531 9.5 130 14.8 101820 57
2005-05-19 10:21 51°9.493 2°38.597 8.4 131 14.9 101830 61
2005-05-19 10:22 51°9.508 2°38.662 8.2 129 14.8 101830 61
2005-05-19 10:23 51°9.522 2°38.728 9.7 120 14.8 101820 58
2005-05-19 10:24 51°9.538 2°38.794 9.3 124 14.8 101820 60
2005-05-19 10:25 51°9.555 2°38.858 8.2 124 14.8 101820 60
2005-05-19 10:26 51°9.573 2°38.923 9.7 129 14.8 101820 59
2005-05-19 10:27 51°9.591 2°38.988 8.4 125 14.9 101830 61
2005-05-19 10:28 51°9.61 2°39.051 9.7 126 14.8 101820 59
2005-05-19 10:29 51°9.632 2°39.115 9.9 120 14.9 101810 60
2005-05-19 10:30 51°9.652 2°39.177 8.6 119 15 101820 57
2005-05-19 10:31 51°9.67 2°39.241 10.5 124 15.1 101820 58
2005-05-19 10:32 51°9.687 2°39.304 8 125 15.1 101820 59
2005-05-19 10:33 51°9.705 2°39.367 11.7 114 15.1 101810 59
2005-05-19 10:34 51°9.727 2°39.43 10.2 121 15 101810 57
2005-05-19 10:35 51°9.746 2°39.493 11.6 121 15.1 101820 57
2005-05-19 10:36 51°9.762 2°39.558 10.6 126 15.1 101810 56
2005-05-19 10:37 51°9.778 2°39.639 10.5 127 15.2 101810 56
2005-05-19 10:38 51°9.796 2°39.733 9.9 121 15.2 101820 56
2005-05-19 10:39 51°9.813 2°39.827 10.7 115 15.2 101820 57
2005-05-19 10:40 51°9.824 2°39.901 12.6 109 15.1 101820 56
2005-05-19 10:41 51°9.835 2°39.962 9.9 105 15.1 101830 56
2005-05-19 10:42 51°9.845 2°40.015 9.3 96 15.2 101820 57
2005-05-19 10:43 51°9.853 2°40.085 8.6 118 15.1 101810 56
2005-05-19 10:44 51°9.882 2°40.243 7.6 109 15.2 101820 58
2005-05-19 10:45 51°9.959 2°40.554 8.4 92 15.2 101820 56
2005-05-19 10:46 51°10.048 2°40.903 10.5 97 15.1 101810 57
2005-05-19 10:47 51°10.136 2°41.261 8.1 105 15.2 101820 57
2005-05-19 10:48 51°10.224 2°41.62 7.1 100 15.1 101830 59
2005-05-19 10:49 51°10.311 2°41.982 6.1 106 15.1 101830 58
2005-05-19 10:50 51°10.397 2°42.338 5.5 87 15.1 101830 58
2005-05-19 10:51 51°10.482 2°42.692 4.8 108 15.1 101830 58
2005-05-19 10:52 51°10.568 2°43.047 8.1 94 15.1 101820 58
2005-05-19 10:53 51°10.654 2°43.401 5.5 81 15.1 101820 57
2005-05-19 10:54 51°10.739 2°43.754 9 90 15.2 101830 58
2005-05-19 10:55 51°10.847 2°44.09 6.7 105 15.2 101830 56
2005-05-19 10:56 51°10.96 2°44.423 6.4 110 15.3 101830 57
2005-05-19 10:57 51°11.073 2°44.753 5.3 89 15.3 101830 59
2005-05-19 10:58 51°11.184 2°45.09 4.2 99 15.3 101820 56
2005-05-19 10:59 51°11.296 2°45.424 4.4 99 15.3 101830 59
2005-05-19 11:00 51°11.409 2°45.758 7.6 94 15.3 101820 59
2005-05-19 11:01 51°11.52 2°46.094 8.5 88 15.3 101820 57
2005-05-19 11:02 51°11.631 2°46.431 6.8 111 15.3 101820 57
2005-05-19 11:03 51°11.744 2°46.768 6.3 97 15.3 101820 57
2005-05-19 11:04 51°11.857 2°47.106 8.5 101 15.4 101820 57
2005-05-19 11:05 51°11.97 2°47.447 6.9 124 15.4 101820 55
2005-05-19 11:06 51°12.083 2°47.785 5.1 112 15.4 101820 58
2005-05-19 11:07 51°12.197 2°48.13 5.5 73 15.4 101820 60
2005-05-19 11:08 51°12.312 2°48.473 8.7 91 15.3 101810 57
2005-05-19 11:09 51°12.422 2°48.81 9.3 87 15.4 101810 57
2005-05-19 11:10 51°12.536 2°49.148 5.7 78 15.5 101820 57
2005-05-19 11:11 51°12.65 2°49.484 6.8 98 15.5 101810 56
2005-05-19 11:12 51°12.771 2°49.815 4.9 109 15.5 101820 57
2005-05-19 11:13 51°12.895 2°50.142 6.3 83 15.5 101810 57
2005-05-19 11:14 51°13.015 2°50.472 6.3 98 15.5 101810 57
2005-05-19 11:15 51°13.141 2°50.806 6.6 105 15.6 101820 56
2005-05-19 11:16 51°13.267 2°51.139 6.7 101 15.7 101820 59
2005-05-19 11:17 51°13.391 2°51.473 6.4 112 15.6 101820 58
2005-05-19 11:18 51°13.515 2°51.807 7.3 116 15.7 101820 57
2005-05-19 11:19 51°13.64 2°52.14 7.2 117 15.6 101810 55
2005-05-19 11:20 51°13.769 2°52.469 4.7 85 15.6 101820 55
2005-05-19 11:21 51°13.906 2°52.786 6.2 113 15.7 101810 56
2005-05-19 11:22 51°14.043 2°53.105 6.6 91 15.7 101810 53
2005-05-19 11:23 51°14.186 2°53.418 6.3 97 15.7 101820 53
2005-05-19 11:24 51°14.33 2°53.73 7 81 15.8 101810 54
2005-05-19 11:25 51°14.484 2°54.025 6 101 15.8 101810 54
2005-05-19 11:26 51°14.659 2°54.299 4.2 77 15.9 101810 53
2005-05-19 11:27 51°14.841 2°54.551 5.2 109 16 101820 54
2005-05-19 11:28 51°15.035 2°54.783 5.2 112 16 101820 54
2005-05-19 11:29 51°15.229 2°55.014 4.7 118 16 101820 53
2005-05-19 11:30 51°15.42 2°55.25 5 123 16 101820 55
2005-05-19 11:31 51°15.601 2°55.517 5.1 113 15.9 101820 54
2005-05-19 11:32 51°15.754 2°55.816 5.2 106 15.9 101820 54
2005-05-19 11:33 51°15.899 2°56.134 5.5 95 15.9 101820 55
2005-05-19 11:34 51°16.04 2°56.441 7.7 99 15.8 101820 55
2005-05-19 11:35 51°16.172 2°56.766 6.7 87 15.8 101810 54
2005-05-19 11:36 51°16.301 2°57.089 6 90 15.8 101800 52
2005-05-19 11:37 51°16.422 2°57.417 5.7 80 15.9 101810 53
2005-05-19 11:38 51°16.54 2°57.747 7.6 82 15.8 101810 54
2005-05-19 11:39 51°16.658 2°58.072 8.3 103 15.8 101800 52
2005-05-19 11:40 51°16.777 2°58.402 7.9 110 15.9 101800 51
2005-05-19 11:41 51°16.896 2°58.727 6.5 113 15.9 101810 52
2005-05-19 11:42 51°17.015 2°59.059 5.5 123 16 101800 50
2005-05-19 11:43 51°17.143 2°59.376 6.1 125 15.9 101810 52
2005-05-19 11:44 51°17.276 2°59.694 4.9 45 16 101820 51
2005-05-19 11:45 51°17.414 3°0.009 3.4 107 16.1 101810 53
2005-05-19 11:46 51°17.56 3°0.313 4.5 123 16 101800 52
2005-05-19 11:47 51°17.703 3°0.617 6.6 151 16.1 101810 52
2005-05-19 11:48 51°17.85 3°0.924 4.1 129 16.1 101810 51
2005-05-19 11:49 51°17.984 3°1.237 5.2 124 16.1 101810 53
2005-05-19 11:50 51°18.121 3°1.551 4.5 58 16 101810 55
2005-05-19 11:51 51°18.265 3°1.854 6 99 15.9 101810 54
2005-05-19 11:52 51°18.414 3°2.16 4.9 89 16.1 101810 52
2005-05-19 11:53 51°18.56 3°2.463 7.1 96 16.1 101810 54
2005-05-19 11:54 51°18.706 3°2.764 11 99 16.1 101800 51
2005-05-19 11:55 51°18.851 3°3.061 7.3 112 16.2 101800 50
2005-05-19 11:56 51°18.997 3°3.364 8.1 108 16.2 101800 52
2005-05-19 11:57 51°19.138 3°3.668 7.8 113 16.2 101800 51
2005-05-19 11:58 51°19.258 3°3.935 5.6 127 16.2 101800 52
2005-05-19 11:59 51°19.342 3°4.062 4.2 197 16.1 101800 51
2005-05-19 12:00 51°19.369 3°4.086 7.9 222 16.2 101820 51
2005-05-19 12:01 51°19.383 3°4.107 11 231 16.2 101820 50
2005-05-19 12:02 51°19.401 3°4.127 11.7 246 16.2 101820 51
2005-05-19 12:03 51°19.419 3°4.144 7.1 256 16.1 101820 52
2005-05-19 12:04 51°19.436 3°4.16 11 270 16.1 101820 51
2005-05-19 12:05 51°19.451 3°4.178 9.3 265 16.1 101820 53
2005-05-19 12:06 51°19.467 3°4.198 10.3 265 16.1 101820 52
2005-05-19 12:07 51°19.481 3°4.219 5.6 257 16.2 101820 52
2005-05-19 12:08 51°19.495 3°4.241 5.4 256 16.1 101830 54
2005-05-19 12:09 51°19.511 3°4.255 8.3 229 16 101830 56
2005-05-19 12:10 51°19.543 3°4.257 6.6 223 15.9 101830 53
2005-05-19 12:11 51°19.589 3°4.278 4.6 178 16 101830 54
2005-05-19 12:12 51°19.619 3°4.343 8.8 131 16.1 101810 54
2005-05-19 12:13 51°19.622 3°4.41 10.7 101 15.9 101810 56
2005-05-19 12:14 51°19.617 3°4.46 8.8 77 15.8 101790 55
2005-05-19 12:15 51°19.611 3°4.498 9.8 76 15.7 101800 56
2005-05-19 12:16 51°19.605 3°4.529 10.5 67 15.6 101800 55
2005-05-19 12:17 51°19.601 3°4.554 9.9 66 15.5 101790 57
2005-05-19 12:18 51°19.594 3°4.575 9.1 48 15.4 101800 57
2005-05-19 12:19 51°19.585 3°4.594 10 37 15.4 101790 56
2005-05-19 12:20 51°19.572 3°4.614 10.8 39 15.6 101790 56
2005-05-19 12:21 51°19.556 3°4.636 10.5 37 15.7 101780 53
2005-05-19 12:22 51°19.521 3°4.648 12 19 15.8 101790 54
2005-05-19 12:23 51°19.477 3°4.617 10.6 2 15.8 101790 53
2005-05-19 12:24 51°19.441 3°4.551 11.6 349 15.9 101780 54
2005-05-19 12:25 51°19.407 3°4.471 12.2 339 15.9 101790 54
2005-05-19 12:26 51°19.375 3°4.389 11.1 336 15.9 101790 56
2005-05-19 12:27 51°19.354 3°4.327 9.1 325 15.9 101780 55
2005-05-19 12:28 51°19.34 3°4.271 11.4 319 15.9 101780 53
2005-05-19 12:29 51°19.328 3°4.22 11.8 329 15.9 101780 54
2005-05-19 12:30 51°19.318 3°4.174 10.8 325 16 101780 54
2005-05-19 12:31 51°19.309 3°4.13 10.8 334 16 101780 53
2005-05-19 12:32 51°19.299 3°4.087 14.2 331 16.1 101780 54
2005-05-19 12:33 51°19.292 3°4.045 12.3 326 16.1 101790 52
2005-05-19 12:34 51°19.286 3°4.003 10.3 325 16.2 101770 52
2005-05-19 12:35 51°19.278 3°3.962 11.7 337 16.3 101780 50
2005-05-19 12:36 51°19.269 3°3.923 10 334 16.3 101780 50
2005-05-19 12:37 51°19.258 3°3.882 10 334 16.4 101780 52
2005-05-19 12:38 51°19.233 3°3.832 8.6 355 16.4 101780 53
2005-05-19 12:39 51°19.199 3°3.777 10.6 348 16.3 101780 54
2005-05-19 12:40 51°19.163 3°3.719 11.2 343 16.2 101780 53
2005-05-19 12:41 51°19.128 3°3.656 7.7 337 16.3 101780 54
2005-05-19 12:42 51°19.094 3°3.592 9 343 16.2 101780 54
2005-05-19 12:43 51°19.064 3°3.531 10.3 338 16.3 101780 54
2005-05-19 12:44 51°19.034 3°3.473 8.7 346 16.4 101790 54
2005-05-19 12:45 51°19.006 3°3.415 12.1 345 16.4 101780 52
2005-05-19 12:46 51°18.982 3°3.359 12.2 340 16.4 101760 52
2005-05-19 12:47 51°18.961 3°3.305 12.5 338 16.5 101760 51
2005-05-19 12:48 51°18.941 3°3.254 14.4 344 16.5 101760 52
2005-05-19 12:49 51°18.924 3°3.203 11.8 324 16.4 101760 51
2005-05-19 12:50 51°18.907 3°3.15 14.1 338 16.4 101760 51
2005-05-19 12:51 51°18.89 3°3.087 13 233 16.4 101760 51
2005-05-19 12:52 51°18.888 3°2.998 10.6 298 16.4 101760 52
2005-05-19 12:53 51°18.905 3°2.863 12.7 301 16.3 101760 53
2005-05-19 12:54 51°18.901 3°2.762 10.2 313 16.2 101780 54
2005-05-19 12:55 51°18.895 3°2.7 10.9 310 16.2 101770 53
2005-05-19 12:56 51°18.894 3°2.659 10.3 308 16.3 101770 53
2005-05-19 12:57 51°18.894 3°2.616 11.3 328 16.2 101770 53
2005-05-19 12:58 51°18.815 3°2.451 17.3 350 16.3 101760 54
2005-05-19 12:59 51°18.69 3°2.196 15.4 349 16.3 101750 53
2005-05-19 13:00 51°18.562 3°1.924 15.7 346 16.3 101760 55
2005-05-19 13:01 51°18.433 3°1.652 15.5 347 16.3 101750 54
2005-05-19 13:02 51°18.303 3°1.383 14.3 350 16.3 101760 54
2005-05-19 13:03 51°18.173 3°1.105 17.3 346 16.3 101770 56
2005-05-19 13:04 51°18.043 3°0.829 16.7 345 16.3 101740 53
2005-05-19 13:05 51°17.912 3°0.551 17.6 350 16.3 101750 56
2005-05-19 13:06 51°17.782 3°0.272 18.9 342 16.3 101740 54
2005-05-19 13:07 51°17.653 2°59.991 18.2 344 16.3 101730 54
2005-05-19 13:08 51°17.524 2°59.709 16.4 345 16.3 101740 53
2005-05-19 13:09 51°17.395 2°59.427 16 336 16.4 101730 53
2005-05-19 13:10 51°17.266 2°59.146 14.9 341 16.5 101740 55
2005-05-19 13:11 51°17.136 2°58.862 14.1 341 16.4 101740 54
2005-05-19 13:12 51°17.006 2°58.576 16.7 344 16.4 101750 55
2005-05-19 13:13 51°16.876 2°58.292 15.7 341 16.5 101740 56
2005-05-19 13:14 51°16.747 2°58.008 17.6 332 16.4 101740 56
2005-05-19 13:15 51°16.617 2°57.726 17.1 348 16.5 101730 53
2005-05-19 13:16 51°16.488 2°57.443 18.5 338 16.5 101750 56
2005-05-19 13:17 51°16.36 2°57.161 18.4 335 16.4 101730 55
2005-05-19 13:18 51°16.23 2°56.877 13.5 344 16.4 101740 56
2005-05-19 13:19 51°16.104 2°56.599 14.4 354 16.3 101750 58
2005-05-19 13:20 51°15.974 2°56.315 15 347 16.3 101740 58
2005-05-19 13:21 51°15.854 2°56.025 15.8 348 16.3 101730 56
2005-05-19 13:22 51°15.739 2°55.728 17.7 351 16.4 101740 57
2005-05-19 13:23 51°15.613 2°55.445 16.4 354 16.4 101730 56
2005-05-19 13:24 51°15.467 2°55.194 16.8 2 16.3 101740 57
2005-05-19 13:25 51°15.3 2°54.986 16.7 13 16.2 101760 58
2005-05-19 13:26 51°15.106 2°54.856 17.9 13 16.1 101760 58
2005-05-19 13:27 51°14.893 2°54.816 17.6 22 16.2 101750 58
2005-05-19 13:28 51°14.679 2°54.832 14.6 30 16.3 101740 58
2005-05-19 13:29 51°14.474 2°54.926 13.9 37 16.3 101750 58
2005-05-19 13:30 51°14.327 2°55.126 9.9 67 16.5 101720 57
2005-05-19 13:31 51°14.219 2°55.322 8.6 34 16.7 101760 56
2005-05-19 13:32 51°14.095 2°55.435 8.8 33 16.9 101760 53
2005-05-19 13:33 51°13.99 2°55.51 10.8 25 16.9 101750 53
2005-05-19 13:34 51°13.889 2°55.585 8.3 10 17.1 101760 53
2005-05-19 13:35 51°13.792 2°55.67 11.8 31 17.2 101750 52
2005-05-19 13:36 51°13.723 2°55.799 10.9 62 17.2 101750 53
2005-05-19 13:37 51°13.673 2°55.904 5.6 60 17.1 101750 53
2005-05-19 13:38 51°13.633 2°55.979 5.1 37 17.2 101750 52
2005-05-19 13:39 51°13.608 2°56.053 5.5 63 17.2 101750 53
2005-05-19 13:40 51°13.596 2°56.099 8 52 17.3 101750 53